Simultaneous Nadir Overpasses (SNOs) Predictions

Prediction of SNOs between NOAA-20 and NOAA-19 Satellite Orbit:

Table of predicted SNOs for the next 14.0 days since TLE Epoch: 2/15/2020
Index Date (NOAA-20) Time (NOAA-20) Lat,Lon (NOAA-20) SZA (NOAA-20 ) Date (NOAA-19) Time (NOAA-19) Lat,Lon (NOAA-19) SZA (NOAA-19 ) Distance(km) Time Diff (sec)
1 02/20/2020 18:26:38 -79.58, 48.33 87.36 02/20/2020 18:25:36 -79.56, 48.36 87.35 2.50 62
2 02/20/2020 19:17:23 79.57,-144.32 92.63 02/20/2020 19:16:31 79.58,-144.16 92.64 3.29 52
3 02/20/2020 20:08:08 -79.58, 22.94 87.38 02/20/2020 20:07:36 -79.57, 23.06 87.38 2.42 32
4 02/20/2020 20:58:53 79.58,-169.71 92.61 02/20/2020 20:58:32 79.57,-169.76 92.62 1.28 21
5 02/20/2020 21:49:38 -79.58, -2.45 87.40 02/20/2020 21:49:37 -79.57, -2.53 87.40 2.42 1
6 02/20/2020 22:40:23 79.58, 164.89 92.59 02/20/2020 22:40:32 79.59, 164.94 92.58 1.23 9
7 02/20/2020 23:31:08 -79.58, -27.84 87.42 02/20/2020 23:31:37 -79.58, -27.84 87.43 0.14 29
8 02/21/2020 00:21:53 79.58, 139.50 92.56 02/21/2020 00:22:33 79.58, 139.34 92.56 3.28 40
9 02/21/2020 01:12:38 -79.59, -53.23 87.44 02/21/2020 01:13:37 -79.60, -53.14 87.47 2.70 59




NCC Satellite Simultaneous Nadir Overpasses (SNOs) Prediction Service
